Wind_Speed
6 7 8 7 6 6 6 6 8 9 10 10 11 12 12 13 14 14 14 14 15 15 15 16 17 19 20 21 23 24 25 26 26 26 26 26 25 25 25 24 24 24 24 24 24 25 26 27 26 24 23 25 26 25 25 26 26 26 25 25 25 27 28 29 32 35 35 34 32 29 27 26 26 29 31 30 27 27 31 34 34 34 34 35 37
4 5 6 7 7 8 8 8 10 11 11 12 13 14 14 15 15 15 15 15 16 16 16 17 18 19 20 21 22 24 25 26 27 28 28 27 27 26 25 25 25 24 24 24 24 24 24 25 24 24 23 25 26 26 26 26 24 24 25 25 26 27 27 28 30 33 36 36 33 30 26 25 26 27 29 30 28 27 30 34 35 35 35 35 37
3 6 9 11 12 12 12 12 12 12 13 13 14 15 15 15 15 16 16 17 17 17 17 17 18 19 20 21 23 24 25 26 27 28 28 29 28 28 27 26 25 25 25 25 24 23 23 23 23 24 25 25 27 28 27 26 24 22 22 23 25 26 28 29 29 32 36 36 32 27 25 26 27 26 25 26 27 27 28 31 33 34 35 35 36
8 10 11 13 13 13 13 13 12 13 13 14 14 15 15 15 16 16 17 17 17 17 18 18 19 20 21 23 24 25 26 27 27 28 28 29 29 30 30 29 28 27 27 26 26 24 24 23 23 24 25 25 27 29 28 26 24 23 23 23 24 25 27 28 30 32 36 35 29 26 25 25 25 26 25 24 26 26 25 26 30 32 33 33 35
11 11 12 12 12 13 13 13 13 13 14 14 15 15 16 16 17 17 17 17 18 19 19 20 21 22 23 25 25 26 27 28 28 29 29 30 30 30 30 31 31 30 29 28 27 26 25 24 24 25 26 26 26 28 28 25 24 23 24 24 23 23 24 25 27 30 34 34 28 25 25 24 24 25 27 26 26 26 25 25 28 31 34 34 35
11 12 11 11 12 13 15 15 15 16 16 16 17 17 17 18 18 18 19 20 20 21 22 22 23 24 25 25 26 26 27 28 29 30 31 31 31 31 30 30 31 31 31 30 29 28 26 25 25 26 28 28 27 27 27 26 24 23 24 24 23 21 22 22 23 25 28 31 29 26 24 24 23 25 27 28 27 27 26 27 29 31 35 36 37
11 11 10 12 14 16 17 18 18 18 18 18 18 18 18 18 19 20 20 21 21 22 23 23 24 25 25 25 26 26 27 28 29 30 31 32 32 32 32 31 31 31 31 31 30 29 28 26 25 25 27 28 29 29 28 28 26 24 24 25 26 24 22 21 21 22 24 26 29 29 25 24 25 25 26 26 27 29 28 28 30 32 35 37 39
10 10 11 13 15 17 18 18 19 19 19 19 19 18 19 19 20 21 21 22 22 22 23 23 24 24 25 25 26 26 27 29 30 31 31 32 32 33 33 32 32 31 31 31 31 30 28 26 25 25 26 27 29 30 29 29 29 26 25 25 27 27 26 23 21 22 25 25 27 28 26 26 27 27 25 26 28 31 31 30 30 32 35 37 39
9 10 12 14 16 16 17 18 19 19 19 19 19 19 19 20 20 20 21 22 22 22 22 22 23 23 24 24 25 26 27 28 29 30 31 32 32 33 33 33 33 33 32 31 31 31 30 28 26 25 25 26 27 28 29 29 29 29 28 27 27 27 27 26 24 23 25 27 27 27 27 28 29 29 29 30 31 32 31 31 31 30 33 37 40
10 13 15 16 16 16 17 18 19 19 19 19 19 19 20 20 20 20 21 21 21 21 21 21 22 23 23 24 25 26 26 27 27 27 28 30 32 33 34 34 35 35 34 33 33 32 32 31 28 26 25 26 26 27 27 28 28 29 29 28 27 27 28 28 28 24 24 27 29 29 30 30 31 32 33 33 31 30 31 32 34 33 33 36 40
15 17 18 18 17 18 19 19 19 19 20 20 19 19 19 20 20 20 21 21 21 21 21 21 22 23 24 25 25 26 26 26 26 26 27 28 30 32 33 34 35 36 37 36 35 34 33 32 31 29 28 28 28 28 28 28 28 29 30 29 28 27 26 27 29 27 25 26 28 30 32 33 32 32 34 34 33 31 31 33 36 37 37 39 41
20 21 21 21 20 20 20 20 20 20 20 20 19 19 19 20 20 21 22 22 22 22 22 22 22 23 23 24 24 25 25 26 26 27 27 27 28 30 32 33 35 36 37 38 37 37 36 34 33 31 30 29 30 30 30 30 29 29 29 30 30 28 26 25 28 29 28 26 27 30 32 32 32 32 33 34 34 33 33 34 36 38 39 41 42
23 23 23 22 22 22 21 21 21 21 21 20 19 19 20 22 23 24 24 23 23 22 22 22 22 22 23 23 24 24 25 25 26 27 28 28 28 29 32 33 34 35 36 37 37 38 38 37 35 33 32 31 31 31 32 32 31 30 29 29 30 29 27 25 25 27 28 27 27 30 31 31 32 33 32 32 33 34 35 37 38 38 39 41 41
24 24 24 23 23 22 21 21 22 22 21 21 20 21 23 24 24 25 25 24 24 24 23 23 23 23 23 24 24 25 25 25 26 27 28 29 29 30 32 34 34 34 35 36 36 37 38 38 37 36 34 33 33 33 33 34 33 32 31 30 29 30 30 28 26 27 28 28 27 28 30 31 31 31 29 28 30 32 35 36 37 38 39 38 39
24 24 24 24 23 22 22 22 22 22 22 21 22 22 23 24 25 25 25 25 25 25 24 24 24 24 23 23 24 24 24 24 25 26 28 29 30 31 33 35 35 35 36 36 35 36 37 38 37 37 37 35 34 34 34 35 35 34 33 31 29 29 30 29 27 28 29 29 29 27 27 28 30 30 28 27 27 28 29 31 33 35 36 37 39
24 24 24 24 24 23 23 22 22 22 21 21 22 22 22 23 24 25 25 25 25 25 25 25 25 24 24 23 24 24 24 24 25 26 28 29 30 32 34 37 38 38 37 36 35 35 37 38 38 37 37 37 36 35 35 35 36 35 34 32 30 28 27 27 26 27 29 29 29 28 25 25 27 28 28 27 26 25 26 29 33 36 38 39 40
23 23 23 22 22 22 22 23 23 22 21 21 21 21 22 23 24 24 25 25 26 26 27 27 27 26 25 25 25 25 24 24 24 26 28 29 30 33 37 39 40 39 37 36 35 35 36 37 37 37 37 36 36 35 36 36 37 38 38 35 32 29 27 26 25 25 26 28 29 28 26 25 25 26 28 28 27 26 27 31 36 38 39 40 41
22 21 21 20 20 20 21 22 22 22 20 20 20 20 21 22 23 24 25 26 27 27 27 28 28 28 28 27 26 26 25 24 24 26 28 29 32 35 39 41 42 42 39 37 36 36 36 36 36 36 36 35 34 34 34 35 37 39 40 38 36 33 30 28 27 24 24 27 27 26 25 24 25 26 28 30 29 29 30 32 33 36 39 41 40
20 19 18 18 18 19 19 20 21 21 20 19 19 19 20 21 22 23 24 25 26 27 28 28 29 30 30 29 28 27 26 25 24 25 27 30 32 35 38 41 44 44 41 38 37 36 36 36 36 36 35 34 33 31 32 33 34 36 37 38 38 37 35 32 30 25 23 24 25 24 22 22 23 24 26 29 30 30 30 29 30 33 38 39 39
18 17 16 16 16 17 17 18 19 19 19 19 18 18 19 19 20 21 23 24 25 26 28 28 29 30 30 30 30 29 28 26 24 25 27 29 31 34 37 41 44 43 40 38 38 37 37 37 37 36 36 35 32 30 29 29 30 32 33 34 34 35 36 35 32 27 23 21 22 22 22 22 22 21 20 23 28 29 28 27 28 30 32 35 39
16 15 14 14 14 14 15 16 16 17 18 18 17 17 17 18 19 20 21 23 24 26 27 28 28 29 30 31 31 30 29 28 26 26 26 28 30 33 37 40 41 40 38 37 37 36 36 37 37 36 36 34 32 29 27 28 28 29 30 29 28 28 29 29 28 25 22 20 19 19 20 21 22 20 17 18 22 26 27 28 29 29 29 32 36
15 14 13 12 12 12 13 14 14 15 16 16 16 16 16 17 18 18 20 21 23 25 26 27 28 28 29 31 32 31 30 29 28 27 27 28 30 33 36 37 37 36 36 36 36 35 35 36 36 36 36 34 32 29 27 27 28 27 27 25 24 23 22 22 21 21 20 17 15 13 14 17 20 19 18 17 18 21 24 26 28 29 28 29 32
13 12 11 11 10 10 11 12 13 13 14 15 14 14 15 15 16 17 19 20 22 24 25 27 27 28 29 31 32 32 32 31 30 29 27 28 30 31 33 34 34 35 37 37 36 35 35 35 36 36 35 35 34 31 29 27 27 27 25 23 22 23 22 20 20 19 17 15 11 9 8 10 14 17 18 18 17 18 20 23 25 28 27 28 31
12 11 10 9 9 9 9 10 11 11 12 13 13 13 13 14 15 16 18 19 21 23 25 26 28 29 30 31 31 32 32 32 32 31 30 30 29 29 31 32 32 34 37 38 37 35 34 34 35 35 36 35 35 35 33 30 28 28 27 25 24 24 24 23 22 20 19 17 14 14 13 10 8 11 14 16 17 17 18 19 22 26 28 28 30
11 10 9 7 7 7 7 8 9 9 10 11 11 11 12 13 14 15 17 18 20 22 24 26 27 28 30 31 31 32 32 33 33 33 32 32 29 28 30 31 30 32 35 36 37 36 33 32 33 35 36 37 37 37 38 36 32 30 30 30 29 28 26 25 25 23 23 23 22 20 19 16 12 9 10 12 14 15 17 19 19 23 28 31 31
10 9 9 8 6 5 6 7 7 7 8 9 9 9 10 11 12 14 16 17 19 21 23 25 26 27 29 30 31 31 32 32 33 33 33 32 29 28 29 30 29 31 33 34 37 37 36 34 33 35 37 38 38 39 40 40 38 34 32 33 33 32 29 26 26 26 25 25 25 23 21 20 16 11 10 11 11 12 14 17 17 18 23 29 31
9 9 9 7 6 4 4 5 6 6 6 7 7 8 9 10 12 13 15 16 18 20 22 24 26 27 29 30 31 31 32 32 33 32 31 30 28 28 29 29 30 31 32 33 35 38 39 38 36 36 38 39 39 40 40 41 42 41 38 35 34 33 31 27 26 26 25 24 23 22 20 19 18 16 15 13 11 9 8 10 12 13 16 22 27
9 9 8 7 6 4 4 4 4 5 5 6 6 7 8 10 11 13 14 15 17 19 21 23 25 26 28 30 30 31 31 32 32 31 29 27 27 27 29 29 30 31 31 31 32 35 39 41 41 40 41 43 43 43 43 43 43 43 43 40 36 32 31 30 29 30 29 28 27 25 23 21 20 19 18 16 14 12 8 6 6 7 10 14 19
9 9 8 7 7 6 5 5 4 5 4 5 5 7 8 9 11 13 14 14 16 18 20 21 23 24 26 28 29 31 31 31 31 29 27 25 25 26 27 27 27 29 29 28 30 34 38 42 44 44 44 44 45 46 46 45 45 44 44 43 40 36 34 33 32 31 31 31 32 32 32 30 27 24 20 18 19 18 14 10 6 3 3 7 11
9 8 7 7 8 8 7 7 6 5 4 4 4 6 7 9 10 12 13 14 15 17 18 20 21 22 24 25 27 28 29 29 29 28 26 25 24 24 24 23 23 25 26 27 29 34 37 40 42 43 44 43 44 45 46 47 46 46 45 44 43 41 38 36 34 31 29 29 30 30 31 32 32 30 27 24 21 19 16 13 11 7 4 3 5
8 7 7 8 9 9 8 8 6 5 5 4 4 5 6 8 9 11 12 13 14 16 17 18 20 21 22 23 24 25 27 27 27 27 27 25 24 23 23 22 22 23 24 25 29 34 36 37 39 40 42 42 42 43 45 46 46 46 46 45 44 43 42 40 38 34 31 30 30 29 29 30 31 31 30 28 26 23 21 18 15 13 12 11 11
7 7 8 9 10 9 7 6 6 5 5 5 5 5 5 6 8 10 11 12 13 15 16 17 18 19 20 22 22 24 25 26 27 27 27 26 25 24 22 21 22 22 22 23 28 32 34 35 35 37 38 39 40 41 43 43 44 45 45 45 45 44 43 43 41 39 36 33 32 31 31 30 30 30 29 29 28 27 26 25 23 21 20 18 17
5 6 9 11 10 9 6 4 5 5 6 6 5 5 5 6 7 9 10 11 12 13 15 15 16 18 19 20 21 23 24 25 26 26 26 26 26 25 23 21 21 22 23 24 26 29 31 32 32 33 35 35 37 39 40 41 41 42 42 43 44 43 42 42 41 41 40 37 34 33 33 33 33 32 31 31 30 29 28 28 27 25 25 24 23
4 7 11 12 10 8 7 4 3 4 5 6 6 6 6 6 6 8 9 10 11 12 13 14 15 16 18 19 20 21 22 23 24 25 25 26 27 26 24 22 23 24 26 26 26 26 27 29 30 31 32 33 34 37 39 39 39 39 40 40 41 41 41 41 41 42 41 39 37 35 34 34 34 34 33 33 32 31 31 30 30 28 27 27 25
5 8 13 12 9 8 6 3 2 2 3 5 5 5 6 6 6 7 8 10 11 11 12 13 14 16 17 18 19 20 20 22 23 23 24 25 26 26 26 26 27 29 29 29 27 25 24 26 27 28 30 31 31 34 36 38 39 39 38 38 38 40 41 42 42 42 41 40 39 37 35 34 33 32 32 32 32 33 32 32 32 31 29 28 27
6 10 14 12 9 7 5 3 3 2 1 2 3 4 4 5 6 6 7 8 10 11 11 12 14 15 15 16 17 18 19 20 21 22 23 23 24 26 27 28 29 30 30 31 29 25 23 23 24 25 27 28 29 31 33 35 36 37 37 36 35 36 38 40 41 42 42 40 38 36 34 34 33 32 31 31 31 31 31 31 31 31 29 28 28
7 10 14 12 8 6 5 4 5 5 3 2 1 1 2 4 5 5 6 7 9 10 11 11 13 14 15 15 16 16 17 18 19 20 21 22 23 24 26 26 27 29 30 31 29 25 23 22 23 24 25 27 28 29 31 32 33 34 34 34 33 32 34 35 37 39 40 40 39 36 33 32 32 32 32 32 31 30 29 29 30 30 29 28 28
7 10 12 11 8 6 6 6 7 6 5 4 3 2 1 3 4 5 5 7 8 9 10 10 11 13 14 14 15 15 16 17 17 18 20 22 23 23 23 24 24 26 28 29 28 25 23 22 22 23 25 25 26 27 28 30 31 31 31 31 30 29 29 32 34 35 37 38 39 37 34 32 30 31 32 33 32 30 28 27 27 28 28 28 28
8 9 11 10 9 7 7 7 7 7 6 6 5 4 3 3 4 5 5 7 8 9 9 10 10 11 13 14 14 14 14 15 17 18 19 20 22 22 22 22 23 23 25 26 26 25 22 21 22 23 24 23 24 25 27 28 28 29 29 29 28 27 27 29 31 33 33 34 35 36 36 34 31 29 30 31 32 30 28 27 26 26 26 27 27
10 9 10 11 11 10 9 8 8 7 6 6 6 5 5 5 5 6 6 7 8 9 9 10 10 11 12 13 13 13 13 14 16 17 17 18 19 21 21 21 21 22 22 23 24 24 23 22 21 22 22 22 23 24 26 27 28 28 28 27 26 25 25 26 28 29 30 31 32 33 34 34 32 30 29 29 29 29 28 27 26 25 25 25 25
11 10 11 12 12 11 10 9 8 8 7 7 7 7 7 6 7 7 8 8 9 9 10 10 10 11 11 11 12 12 12 12 14 15 15 16 17 18 19 20 20 21 21 21 21 22 22 22 22 21 21 22 23 25 26 27 28 28 27 25 24 24 22 23 24 26 26 28 28 29 30 31 31 31 29 27 26 26 26 25 25 24 24 24 23
14 12 12 13 13 13 11 10 9 8 8 8 8 8 8 8 8 8 9 9 9 9 10 10 10 11 11 11 11 11 11 11 12 13 14 15 15 16 17 18 18 19 19 20 20 20 20 21 21 21 21 22 23 25 27 28 28 28 25 23 22 22 22 21 22 23 23 24 25 25 26 27 28 28 28 26 24 24 24 24 23 22 22 22 22
15 13 12 13 14 13 12 10 10 10 10 9 7 7 7 8 8 9 9 9 8 8 9 9 9 10 10 10 10 10 11 11 11 11 12 14 14 15 15 16 16 17 17 18 19 19 19 19 19 20 21 21 22 24 26 28 27 26 24 22 21 21 21 21 21 22 22 22 22 22 22 23 23 24 25 24 23 22 21 21 21 21 21 21 21
16 14 13 14 15 14 12 11 11 11 10 9 8 7 7 7 7 8 8 7 6 6 7 8 9 9 9 10 10 10 10 10 10 10 11 13 14 14 14 15 15 15 16 17 17 18 18 18 18 18 19 20 20 22 24 26 26 24 22 21 20 20 20 20 21 21 21 21 21 20 20 19 19 19 20 21 20 20 19 18 18 18 18 18 19
16 16 16 16 17 16 14 12 12 11 11 11 10 9 8 7 6 6 6 5 5 5 5 6 8 9 9 9 10 10 10 10 10 10 11 12 13 14 14 14 14 14 14 15 16 17 18 19 18 18 18 19 19 20 22 24 24 23 21 20 19 19 19 20 20 20 20 21 22 22 21 19 16 15 16 17 17 18 18 16 15 15 15 16 15
15 16 17 18 19 17 16 14 12 12 12 12 11 10 9 8 7 6 6 5 4 5 5 6 8 9 9 9 10 10 10 10 10 10 11 12 13 13 14 14 14 13 13 14 14 16 17 18 19 19 18 18 18 19 20 21 22 21 20 18 18 18 18 18 19 19 21 23 24 24 23 21 17 13 12 13 14 15 16 15 14 13 12 12 13
15 15 17 18 19 18 17 15 14 14 13 13 12 10 10 9 8 8 7 6 6 6 7 7 8 9 9 9 9 10 10 10 11 11 11 12 13 14 14 14 14 13 13 13 13 13 15 17 18 19 19 18 18 18 18 19 20 20 19 18 17 16 16 17 17 19 21 23 24 25 25 23 19 15 13 12 11 11 13 14 14 13 10 9 9
17 16 16 17 19 19 18 17 16 15 14 14 13 12 11 10 10 10 9 8 8 8 8 9 9 10 10 9 9 9 10 10 10 11 11 12 13 13 14 14 14 14 13 12 12 12 13 14 16 18 18 18 18 18 17 17 18 18 18 18 17 16 16 16 16 17 19 21 23 24 24 24 21 17 15 13 12 11 11 12 13 13 12 9 7
17 18 17 18 19 20 20 19 18 16 15 15 15 14 13 12 12 11 11 11 10 10 11 11 11 11 11 11 10 9 9 10 10 10 11 11 12 13 14 14 14 14 13 12 11 11 11 12 14 16 16 17 18 18 18 17 17 17 17 17 16 16 16 15 15 16 17 18 20 22 23 23 21 19 16 14 13 12 11 11 11 12 13 12 8
17 18 19 18 18 19 20 20 20 18 17 17 17 16 16 16 15 13 13 13 13 13 13 14 13 13 13 12 11 10 10 10 10 10 11 11 12 12 13 14 14 13 12 11 11 11 10 11 11 13 14 15 16 17 17 17 18 18 18 17 16 15 15 15 15 15 15 16 17 19 20 21 20 19 18 16 14 12 10 10 10 10 12 13 11
19 19 20 19 18 18 20 22 22 21 20 20 19 19 18 18 17 16 15 15 16 16 16 16 16 15 15 14 13 12 11 11 11 11 11 11 11 12 13 13 13 12 11 11 11 11 11 10 10 11 12 12 13 14 16 16 17 18 19 19 19 17 16 15 14 14 14 15 15 16 17 18 18 18 18 17 16 13 11 10 10 9 11 13 12
Wind_Direction
360 5 20 36 54 63 52 39 36 34 33 28 24 24 22 17 15 12 7 4 1 359 354 350 349 347 347 346 346 347 347 347 347 347 348 347 346 343 340 336 330 322 315 312 312 314 316 318 319 318 316 314 314 311 305 301 297 292 290 290 287 280 274 269 265 267 267 261 254 250 250 250 243 236 235 234 233 230 227 225 222 221 221 219 219
359 15 44 67 71 66 56 48 44 42 42 39 35 33 30 27 26 21 17 16 12 8 4 1 358 355 353 353 353 353 352 352 352 352 351 350 349 347 344 340 337 332 326 319 316 315 317 320 321 319 315 311 310 308 305 302 299 295 292 289 286 280 275 269 265 265 265 260 254 251 252 251 244 237 234 232 230 228 227 225 223 222 222 220 218
65 74 81 81 76 72 66 60 56 51 47 44 40 37 35 34 32 29 27 25 22 17 14 10 6 2 359 358 357 357 356 356 356 355 354 353 352 351 349 346 343 339 334 327 321 318 318 320 321 319 314 310 308 307 304 301 299 296 293 291 289 282 277 275 272 267 262 259 254 251 250 250 243 233 229 230 230 231 232 229 226 225 224 221 215
101 93 86 80 76 72 67 61 54 48 44 42 40 39 39 38 36 33 31 27 24 21 17 13 10 6 4 2 0 359 359 358 357 357 357 356 355 353 351 349 348 345 340 335 330 324 320 320 321 320 317 312 308 306 303 298 297 296 294 293 291 287 283 279 278 272 262 256 252 249 249 251 245 233 228 228 229 231 233 232 229 227 225 220 213
98 88 80 76 73 68 64 58 52 49 48 46 47 46 44 42 40 37 34 30 28 25 22 19 16 13 10 7 4 2 1 360 359 360 360 359 358 355 352 350 349 348 346 343 339 333 327 323 321 320 320 317 312 309 305 299 295 295 296 293 290 291 290 285 282 275 261 252 249 248 249 251 246 236 229 228 229 230 231 231 231 229 226 220 213
88 81 75 71 67 64 62 60 59 59 59 57 56 52 48 44 42 40 38 36 33 30 27 24 21 19 16 12 9 6 4 2 2 3 2 2 0 358 355 352 349 349 349 348 345 341 336 329 324 321 320 320 318 316 313 306 298 293 295 296 293 291 290 287 288 281 265 256 254 252 248 247 246 239 232 231 232 232 230 230 231 231 228 222 216
81 75 70 67 66 65 64 65 66 67 66 64 60 55 51 47 45 43 40 38 36 33 30 26 23 20 18 15 13 10 7 4 4 5 5 4 3 0 358 355 351 349 347 347 347 345 342 337 330 325 322 322 322 320 318 314 309 302 299 298 295 292 288 285 286 285 277 266 260 256 250 246 248 247 240 236 234 235 234 230 229 230 229 225 220
76 74 73 72 70 69 68 69 70 69 68 65 60 56 53 49 46 43 39 36 34 32 30 27 24 21 19 16 14 11 8 7 7 6 5 5 5 2 0 357 354 350 347 345 345 344 344 341 336 331 328 325 324 323 321 318 314 311 306 299 294 291 289 285 281 281 281 274 266 261 254 246 246 248 246 240 234 233 234 233 231 230 228 226 222
76 82 84 81 77 74 74 73 71 68 65 62 58 54 51 47 45 42 39 36 33 31 29 27 24 22 20 17 15 12 10 10 11 8 5 5 4 3 2 360 357 354 349 345 343 341 341 341 340 335 330 325 321 320 321 320 318 316 312 306 298 292 290 287 283 279 278 275 271 266 258 249 245 244 243 241 237 236 236 234 233 232 230 228 224
88 94 92 88 85 82 78 74 70 66 62 58 55 51 49 46 43 40 37 35 32 30 28 26 24 22 20 17 16 14 12 13 13 9 5 4 3 2 2 1 0 359 355 351 346 342 340 339 338 335 329 324 320 316 314 314 315 315 312 310 305 298 293 289 287 284 278 273 270 265 258 251 246 243 242 243 241 239 236 234 232 230 230 229 225
100 100 97 94 90 84 79 74 70 66 62 58 54 50 47 45 42 40 37 34 31 29 27 25 24 21 19 16 14 13 12 12 11 8 6 5 3 2 1 1 1 1 359 357 353 348 344 340 338 336 332 329 325 321 316 312 310 308 305 304 305 304 300 294 290 288 282 274 270 266 259 254 250 245 243 243 243 239 237 236 232 226 225 225 223
104 100 97 93 88 82 78 74 71 67 64 60 56 52 48 45 43 39 36 33 31 28 26 24 23 21 18 15 13 11 10 9 9 7 6 5 3 2 2 1 1 0 360 359 356 353 350 345 341 338 336 333 329 324 320 316 312 309 303 298 296 298 299 296 291 289 285 278 271 266 262 260 258 252 245 242 243 241 239 238 235 228 225 225 224
103 98 95 90 85 81 78 75 72 69 66 62 58 53 47 44 41 38 35 33 30 28 27 24 22 20 17 15 12 10 9 7 6 7 6 5 3 3 2 1 1 0 360 358 357 356 354 350 346 343 340 337 333 328 325 321 318 314 310 302 295 292 291 289 285 284 283 280 273 266 263 263 261 257 252 246 243 242 239 237 235 232 229 229 229
100 96 92 86 83 80 77 74 71 68 65 60 55 51 46 42 39 37 34 32 30 29 27 25 23 21 18 15 11 9 7 4 3 4 4 4 3 3 3 2 2 1 1 359 358 357 355 353 351 349 345 341 338 335 331 327 324 321 317 312 304 296 293 290 284 278 276 276 273 267 263 261 260 260 258 251 246 245 241 238 235 233 232 232 233
99 93 89 84 81 78 74 71 68 64 61 57 53 50 46 43 40 37 34 32 30 29 27 26 25 23 20 17 12 10 7 3 2 3 2 1 1 1 2 2 2 1 0 360 360 359 357 356 354 352 349 346 343 341 336 332 329 326 322 318 312 305 301 299 291 281 275 273 271 270 266 260 257 258 258 254 250 249 248 246 243 237 233 232 231
97 92 89 84 80 75 71 67 65 61 58 55 52 50 46 43 40 37 35 34 32 30 29 28 27 25 23 19 15 11 7 4 3 2 359 358 358 359 0 0 359 360 0 0 1 1 360 358 355 352 350 348 346 344 341 336 332 330 326 321 318 312 307 305 298 285 278 274 271 269 268 265 260 256 255 253 252 252 250 245 239 231 227 226 226
98 94 90 85 80 74 69 64 61 59 56 53 51 49 45 42 39 37 35 35 34 32 31 30 30 29 26 21 18 14 9 6 5 2 359 360 0 0 1 0 359 0 2 2 2 2 1 359 356 353 351 349 347 344 342 340 337 335 332 328 324 319 313 308 301 288 277 273 270 267 266 266 262 255 253 252 251 250 245 237 231 228 224 220 220
103 99 92 86 80 73 68 63 59 57 54 52 51 48 44 41 38 37 35 35 35 33 32 32 32 32 29 25 21 17 11 8 7 6 5 6 6 4 2 1 1 3 3 3 3 2 1 360 357 354 351 349 346 344 342 341 339 339 338 335 331 328 323 317 310 297 280 270 267 265 264 264 261 254 250 249 248 248 245 239 234 231 226 221 220
109 103 94 87 80 73 68 63 59 56 53 50 49 47 43 40 37 36 35 35 36 35 33 33 33 33 32 29 25 22 17 13 10 10 11 10 9 7 4 2 3 4 4 3 3 2 1 359 358 356 353 350 347 343 341 341 341 341 341 338 335 334 333 330 325 314 295 277 269 266 263 263 263 256 247 244 244 245 245 245 239 233 230 226 224
114 107 98 89 81 74 69 63 59 56 52 49 47 45 43 40 36 34 35 36 37 36 34 34 33 33 32 30 27 24 21 18 15 15 15 13 10 8 6 4 4 4 4 3 3 3 2 1 1 359 356 353 349 344 342 342 343 343 343 340 337 336 333 332 330 325 312 294 279 272 266 263 264 262 250 242 241 241 243 245 242 237 235 232 228
119 112 103 93 83 75 69 63 58 55 51 48 45 42 41 37 34 33 34 35 36 36 35 35 34 33 32 31 28 26 23 20 19 19 18 16 14 11 9 7 5 4 5 6 7 8 7 6 6 5 1 358 354 348 345 345 345 345 345 345 341 336 332 332 334 333 323 303 284 274 268 261 261 263 257 247 242 240 241 243 243 240 239 236 232
121 115 108 99 87 76 68 61 56 53 50 46 42 40 39 36 33 33 33 34 35 36 35 35 34 33 32 31 30 28 26 23 21 21 20 19 16 12 10 10 9 8 10 12 12 14 14 13 12 10 8 6 3 359 354 352 351 350 348 348 348 347 345 344 346 345 334 313 290 280 274 263 258 259 257 253 247 242 239 240 241 241 241 240 238
127 120 113 105 92 78 67 59 55 51 48 45 41 38 37 36 34 33 32 32 34 34 34 33 32 31 31 30 29 28 26 24 23 22 21 19 16 13 12 13 15 17 18 18 16 16 17 17 15 13 12 12 12 11 8 3 2 1 357 355 357 1 3 4 5 6 357 338 318 314 314 285 265 260 256 253 251 247 243 240 239 238 238 239 238
139 132 124 113 98 82 68 59 53 48 46 45 41 37 37 36 35 34 32 31 32 33 33 32 31 30 29 28 28 26 24 23 22 21 20 18 17 16 15 15 18 20 20 19 18 17 17 18 17 15 15 16 17 18 17 14 12 11 9 8 8 9 13 17 19 20 19 13 3 357 2 358 312 280 269 261 255 250 249 247 241 234 233 234 233
147 144 140 131 111 88 70 59 51 45 45 44 41 38 36 36 37 35 32 31 30 31 32 31 30 30 29 28 27 25 23 22 20 20 20 20 21 20 17 16 19 20 19 18 17 17 17 17 17 16 17 18 19 21 22 21 20 18 18 19 19 16 17 21 25 28 31 33 29 19 13 15 9 343 316 294 277 264 256 254 247 234 228 229 230
148 147 149 148 132 100 73 57 48 44 44 45 44 39 35 37 40 38 34 32 30 30 30 29 30 30 29 28 27 24 22 21 20 19 20 21 23 21 17 17 19 19 18 16 16 18 21 20 18 17 18 20 21 23 24 23 24 23 23 25 25 23 21 22 26 30 34 37 38 35 29 26 24 16 359 337 315 295 274 261 251 236 227 226 228
149 145 147 149 142 116 81 57 46 44 47 49 48 43 38 40 42 40 38 34 31 30 29 27 27 28 27 28 27 24 22 21 19 18 18 20 21 19 16 16 16 15 15 14 14 19 23 25 22 20 21 22 23 24 25 25 26 26 25 26 29 29 28 29 30 33 35 35 36 37 34 31 29 28 22 10 353 334 305 277 256 234 220 220 224
159 150 144 143 140 124 93 70 57 52 54 56 54 50 45 44 44 41 38 35 32 31 29 27 27 27 26 26 26 24 23 21 19 17 14 14 16 16 14 14 14 14 14 12 13 19 24 26 25 23 23 23 23 24 25 26 27 28 27 27 29 30 31 33 36 37 37 36 36 36 34 32 31 32 30 27 26 22 5 328 285 243 215 206 208
168 156 144 136 135 128 110 96 81 67 64 62 59 57 51 47 46 42 38 36 33 31 30 29 28 28 27 26 25 24 23 22 20 17 13 11 12 13 13 12 12 14 14 12 14 20 24 25 25 24 23 23 23 23 24 25 26 28 29 29 29 30 31 31 34 36 36 36 37 38 38 38 38 38 37 37 38 36 29 23 22 360 237 204 189
165 161 149 136 134 129 116 105 92 77 74 69 64 65 57 48 46 43 39 37 35 33 31 29 27 28 28 27 26 25 24 21 19 17 15 13 11 10 11 10 10 13 16 16 18 22 24 25 25 25 24 25 25 25 25 24 25 26 28 29 31 32 33 32 32 32 32 33 34 36 38 40 40 41 43 44 45 44 42 42 45 48 67 123 139
165 172 164 148 141 133 119 105 91 80 76 69 64 68 61 49 45 43 40 38 37 35 33 29 26 26 25 25 26 26 24 22 20 18 17 16 14 11 9 7 8 12 16 19 21 23 25 26 25 25 26 27 28 28 26 25 25 25 27 29 31 32 34 35 34 34 33 33 33 33 35 37 39 41 43 45 46 49 51 55 58 64 76 90 95
163 175 173 162 152 143 129 107 89 79 74 69 62 62 60 52 45 42 39 37 37 37 34 30 27 25 23 22 23 24 23 21 20 19 19 18 17 15 11 7 6 8 13 21 26 25 25 26 26 26 26 27 27 27 26 26 26 26 26 28 30 31 33 34 36 37 37 37 38 38 39 41 41 40 40 41 43 45 47 51 56 61 67 76 84
169 177 174 168 162 157 150 126 94 81 76 72 63 55 56 54 47 41 36 32 33 36 35 32 28 26 23 22 21 21 22 20 19 19 19 18 18 18 15 11 9 7 9 18 25 26 25 26 27 27 28 27 26 26 26 26 26 26 26 27 28 30 32 33 35 38 39 41 43 44 45 46 47 47 47 45 46 47 48 50 53 56 60 65 70
183 180 173 170 168 163 159 150 114 91 85 79 66 56 57 53 44 39 33 27 26 29 31 31 29 26 24 22 20 20 20 20 19 18 18 18 19 19 18 16 16 14 13 16 22 24 24 25 27 27 27 27 26 26 26 25 25 25 26 27 27 28 30 32 34 36 38 40 43 46 47 48 49 50 50 50 50 51 51 52 53 55 59 64 67
194 183 175 173 174 170 167 173 174 123 93 84 72 60 58 50 38 32 28 23 21 20 22 26 27 26 24 22 19 19 19 19 19 18 17 18 19 19 19 20 21 21 19 18 20 23 25 26 27 26 24 24 25 26 25 24 24 23 24 26 27 27 29 31 33 35 36 39 42 45 47 48 48 49 50 50 50 50 51 52 53 55 58 63 67
203 189 181 180 183 184 188 203 214 208 159 99 83 66 56 47 36 27 21 18 16 14 14 18 21 22 22 21 18 18 19 19 18 17 18 19 19 19 21 23 23 22 21 20 20 25 29 28 26 24 21 19 21 23 23 21 20 21 22 23 26 28 29 30 32 34 35 37 39 42 45 47 47 48 49 50 50 50 51 53 55 56 58 62 66
208 194 186 186 194 203 214 225 220 216 222 220 180 71 45 36 26 18 12 10 10 8 8 10 13 14 16 18 18 17 17 18 18 17 17 19 20 20 22 24 24 22 22 21 21 26 30 29 26 23 20 18 18 20 19 18 17 17 19 22 25 29 31 31 31 33 35 37 38 40 42 44 46 46 48 49 49 50 52 55 57 58 60 61 64
211 198 191 195 208 218 222 220 211 208 218 232 235 248 326 353 359 1 359 357 358 358 359 0 3 4 6 10 14 15 14 14 14 14 15 17 19 20 22 24 24 22 22 21 22 24 27 28 25 22 19 18 18 19 18 17 15 14 17 20 24 28 32 33 32 33 35 37 38 39 40 42 44 45 47 48 48 49 52 55 58 61 62 63 63
214 208 203 208 217 222 220 216 210 209 216 227 238 251 269 299 323 335 343 347 347 347 347 346 349 353 357 0 5 10 12 11 11 12 14 17 19 19 19 21 22 22 21 21 22 23 25 26 23 20 17 17 18 19 18 16 14 13 14 19 24 28 32 34 33 32 33 35 36 38 39 40 41 42 44 45 46 47 50 53 57 60 62 63 63
223 222 220 221 225 229 229 225 222 221 220 225 240 252 260 277 298 310 324 339 342 340 339 337 335 340 347 351 356 2 6 9 10 11 12 14 17 18 17 17 19 20 19 18 19 21 22 22 20 18 16 17 18 18 16 14 12 12 14 20 25 28 33 35 34 32 32 32 33 34 35 36 38 39 40 41 43 45 48 51 54 58 62 63 64
230 231 233 232 232 233 233 230 230 231 229 231 240 248 255 268 283 293 308 326 335 337 339 336 331 333 340 344 348 354 359 4 9 10 10 10 14 15 15 15 15 16 17 16 16 16 17 18 17 16 15 15 15 16 15 13 12 12 15 22 27 29 32 37 36 33 32 31 30 30 30 31 35 38 39 39 39 42 46 50 51 54 59 62 64
231 237 241 237 232 231 233 236 237 237 236 237 242 246 254 263 272 284 298 314 327 335 343 343 337 334 337 341 345 348 351 356 3 7 7 8 10 11 12 13 13 13 14 14 14 13 13 13 13 13 12 11 11 12 12 12 11 12 17 24 29 31 33 36 36 34 33 31 29 28 28 28 31 35 38 39 39 40 43 47 50 51 54 57 62
231 240 245 238 232 232 238 242 243 242 242 244 246 249 257 265 271 280 294 308 319 332 346 353 349 345 345 346 347 347 347 348 356 2 4 6 8 9 10 11 11 12 12 12 12 12 11 10 10 10 9 8 8 9 10 9 10 14 19 25 29 32 34 36 36 33 31 30 28 27 27 27 28 32 35 38 40 41 42 44 47 49 51 54 58
231 240 244 239 233 234 239 243 245 247 249 250 251 255 263 271 274 280 292 306 316 327 345 357 360 358 357 354 353 352 348 346 349 354 357 360 3 6 8 9 9 10 10 9 10 11 11 9 9 9 10 9 7 7 8 9 10 14 20 25 30 33 34 35 35 31 27 25 24 22 22 23 25 29 32 35 38 41 44 45 45 46 48 50 53
232 240 244 240 235 235 239 244 247 249 251 253 256 260 268 275 276 277 284 298 313 324 338 349 355 359 0 358 358 358 355 351 350 350 350 353 357 359 2 5 7 9 8 7 8 10 11 10 9 8 8 9 8 8 9 10 12 15 19 23 27 30 32 33 33 31 28 25 24 22 21 21 22 26 31 35 38 39 42 45 47 48 49 49 50
232 241 244 240 236 236 240 244 246 249 253 255 256 260 267 276 278 276 276 286 303 318 327 333 338 345 352 355 355 356 358 359 357 353 349 348 352 354 356 358 2 7 8 6 5 7 9 10 9 7 6 5 6 8 10 12 13 16 19 20 23 26 28 29 29 29 27 25 24 25 25 25 26 29 34 38 40 41 42 45 47 48 50 52 53
233 241 243 240 238 238 240 243 248 252 253 253 252 255 264 274 277 276 276 279 287 301 313 319 320 325 335 345 347 349 352 357 1 1 356 352 350 351 351 352 356 0 4 5 4 5 7 8 7 6 5 3 4 8 11 13 15 16 17 19 20 22 24 26 26 25 25 23 23 25 27 28 30 35 40 42 43 43 43 43 43 43 45 49 54
237 240 241 240 239 239 240 243 248 251 253 251 250 252 259 267 272 274 275 277 281 289 299 305 307 309 316 326 334 338 341 346 354 0 0 356 352 349 348 348 350 353 357 0 2 5 7 7 5 4 4 4 5 8 10 12 14 15 15 16 17 17 18 20 21 21 22 23 23 24 26 28 30 34 39 41 43 44 42 40 38 36 35 36 43
241 241 242 243 242 241 242 244 248 253 255 254 252 253 256 261 266 271 273 273 276 283 289 295 298 300 303 308 316 323 327 332 338 346 352 354 353 349 346 345 346 347 349 352 356 2 6 5 2 360 1 4 7 10 11 12 14 15 14 13 14 13 12 13 15 16 17 20 22 23 24 26 29 32 34 36 39 40 40 39 37 33 28 25 25
245 243 242 243 244 244 244 245 249 254 257 255 253 256 259 260 263 266 267 269 273 279 284 289 292 293 294 297 301 307 311 316 321 328 336 343 347 347 344 343 342 342 343 344 348 354 0 2 358 355 357 2 8 13 15 17 19 19 17 14 11 10 7 7 8 10 11 14 18 21 22 23 25 28 30 31 33 35 36 34 33 32 27 23 21
250 247 243 242 243 245 246 247 248 252 254 254 253 257 261 261 261 262 263 265 268 274 280 285 287 288 289 289 290 294 299 303 306 311 319 329 337 341 342 340 338 337 337 335 338 344 351 355 354 350 351 358 7 14 19 23 24 24 24 21 17 13 8 4 2 4 6 8 11 15 18 19 21 23 25 27 28 31 30 26 23 23 21 19 20
Height
1549 1548 1547 1546 1546 1546 1545 1545 1545 1545 1545 1544 1543 1542 1542 1541 1541 1540 1540 1539 1538 1537 1536 1535 1533 1532 1530 1529 1527 1525 1523 1521 1519 1518 1516 1514 1512 1510 1508 1506 1504 1503 1501 1500 1498 1496 1494 1492 1490 1489 1488 1486 1485 1483 1482 1480 1479 1477 1476 1475 1474 1473 1473 1471 1469 1467 1467 1468 1469 1470 1471 1472 1472 1474 1475 1478 1479 1480 1481 1483 1486 1487 1490 1492 1495
1549 1548 1548 1547 1547 1547 1546 1546 1546 1546 1545 1544 1544 1543 1542 1542 1541 1541 1540 1539 1538 1537 1536 1535 1533 1532 1530 1528 1527 1525 1523 1521 1519 1517 1515 1513 1511 1509 1507 1505 1503 1501 1499 1497 1496 1494 1492 1490 1488 1487 1485 1484 1483 1481 1479 1478 1476 1474 1473 1472 1471 1470 1469 1468 1467 1465 1463 1464 1465 1466 1467 1468 1469 1470 1471 1473 1475 1476 1477 1479 1481 1483 1486 1488 1492
1549 1549 1549 1548 1548 1548 1548 1547 1547 1546 1546 1545 1544 1544 1543 1543 1542 1541 1540 1540 1539 1538 1537 1535 1534 1532 1530 1529 1527 1525 1523 1521 1519 1516 1514 1512 1510 1508 1506 1504 1502 1500 1498 1496 1494 1492 1490 1488 1486 1485 1483 1481 1480 1478 1477 1475 1473 1471 1470 1469 1468 1466 1465 1464 1463 1462 1460 1460 1462 1463 1464 1464 1465 1466 1468 1470 1472 1473 1474 1475 1477 1480 1482 1485 1488
1550 1550 1550 1550 1550 1549 1549 1548 1548 1547 1546 1546 1545 1544 1544 1544 1543 1542 1541 1540 1540 1538 1537 1536 1534 1532 1531 1528 1526 1524 1522 1520 1518 1516 1514 1511 1509 1507 1505 1503 1501 1499 1497 1494 1492 1490 1488 1486 1485 1483 1481 1479 1477 1476 1474 1472 1470 1468 1467 1466 1465 1463 1462 1461 1460 1459 1458 1457 1458 1459 1460 1461 1461 1463 1465 1467 1468 1469 1471 1472 1474 1476 1478 1481 1485
1552 1551 1551 1551 1551 1550 1550 1549 1548 1547 1547 1546 1546 1545 1545 1544 1544 1543 1542 1541 1540 1539 1538 1536 1534 1532 1530 1528 1526 1524 1522 1520 1518 1516 1514 1512 1509 1507 1505 1503 1501 1499 1496 1494 1491 1489 1487 1485 1483 1481 1479 1477 1475 1473 1471 1469 1468 1466 1464 1462 1461 1459 1458 1457 1457 1456 1454 1454 1455 1456 1457 1457 1458 1460 1462 1463 1464 1466 1467 1469 1471 1473 1475 1478 1481
1553 1553 1552 1552 1551 1551 1550 1549 1548 1548 1548 1548 1547 1546 1546 1545 1544 1544 1543 1542 1541 1539 1538 1536 1534 1532 1530 1529 1527 1525 1523 1521 1518 1516 1513 1511 1509 1508 1506 1503 1501 1498 1496 1493 1491 1488 1486 1484 1482 1480 1478 1475 1473 1471 1469 1467 1465 1463 1461 1459 1457 1456 1454 1453 1453 1453 1452 1452 1452 1453 1453 1454 1455 1457 1458 1460 1461 1462 1464 1466 1468 1470 1472 1474 1477
1554 1553 1553 1552 1552 1551 1550 1549 1550 1549 1549 1549 1548 1548 1547 1546 1545 1544 1543 1542 1541 1540 1538 1536 1535 1533 1531 1529 1527 1525 1523 1521 1518 1516 1513 1511 1509 1507 1505 1503 1501 1498 1495 1493 1490 1488 1485 1483 1481 1479 1477 1474 1472 1469 1467 1465 1462 1460 1458 1456 1454 1453 1451 1450 1450 1450 1449 1449 1449 1450 1450 1451 1452 1453 1455 1457 1458 1459 1460 1462 1464 1465 1468 1470 1473
1555 1554 1554 1553 1552 1551 1551 1551 1551 1551 1550 1550 1549 1549 1548 1547 1546 1545 1544 1543 1541 1540 1539 1537 1536 1534 1532 1530 1528 1526 1524 1521 1518 1515 1514 1512 1510 1508 1505 1502 1500 1497 1495 1492 1489 1487 1485 1483 1480 1478 1475 1473 1471 1468 1466 1463 1460 1458 1456 1454 1452 1450 1449 1448 1447 1447 1446 1446 1446 1446 1447 1448 1448 1449 1452 1454 1454 1455 1456 1458 1460 1462 1464 1466 1468
1555 1555 1554 1554 1553 1553 1553 1553 1552 1552 1551 1551 1550 1550 1549 1548 1547 1546 1545 1543 1542 1541 1540 1538 1537 1535 1533 1531 1529 1527 1524 1521 1519 1517 1514 1512 1510 1508 1505 1502 1499 1496 1493 1491 1488 1486 1483 1481 1479 1477 1474 1472 1470 1467 1465 1462 1459 1457 1454 1451 1449 1447 1446 1445 1444 1444 1444 1443 1443 1443 1444 1444 1444 1446 1447 1448 1449 1450 1453 1455 1456 1458 1460 1462 1464
1556 1555 1555 1555 1555 1554 1554 1554 1553 1553 1553 1552 1552 1551 1551 1550 1548 1547 1546 1545 1543 1542 1541 1539 1537 1535 1534 1532 1530 1527 1525 1523 1521 1519 1516 1514 1511 1508 1505 1502 1499 1495 1492 1489 1486 1484 1482 1479 1477 1475 1473 1470 1467 1465 1463 1461 1458 1455 1452 1450 1448 1445 1443 1442 1441 1441 1441 1440 1440 1440 1440 1440 1440 1441 1442 1443 1445 1447 1449 1450 1451 1454 1456 1457 1458
1556 1556 1556 1556 1556 1556 1555 1555 1555 1554 1554 1554 1553 1553 1552 1551 1550 1548 1547 1546 1544 1543 1541 1539 1538 1536 1534 1532 1530 1528 1526 1524 1522 1520 1518 1515 1512 1508 1505 1502 1499 1495 1492 1488 1485 1482 1479 1477 1475 1472 1469 1466 1463 1461 1459 1457 1455 1452 1450 1448 1446 1444 1441 1439 1438 1438 1437 1437 1436 1436 1436 1435 1436 1437 1438 1439 1441 1443 1445 1446 1446 1448 1450 1452 1453
1557 1557 1557 1557 1557 1557 1556 1556 1556 1556 1556 1555 1555 1554 1553 1552 1551 1550 1548 1546 1545 1543 1542 1540 1538 1536 1535 1533 1531 1529 1527 1525 1523 1521 1518 1516 1513 1510 1506 1503 1500 1496 1492 1489 1485 1481 1478 1475 1473 1470 1467 1463 1460 1457 1454 1451 1450 1448 1446 1444 1443 1442 1440 1437 1436 1435 1434 1433 1432 1432 1431 1431 1432 1433 1434 1435 1437 1438 1440 1441 1442 1444 1445 1446 1448
1558 1558 1558 1558 1558 1558 1558 1558 1558 1558 1557 1557 1556 1555 1554 1553 1552 1550 1549 1547 1546 1544 1542 1540 1539 1537 1535 1533 1531 1529 1527 1525 1523 1521 1519 1516 1513 1511 1507 1504 1501 1497 1493 1489 1485 1481 1477 1474 1471 1468 1465 1462 1458 1454 1450 1447 1445 1443 1441 1440 1439 1437 1437 1435 1434 1432 1431 1429 1428 1427 1427 1428 1428 1428 1429 1431 1432 1433 1434 1435 1436 1438 1439 1441 1443
1559 1559 1559 1559 1559 1560 1560 1560 1560 1559 1559 1558 1557 1556 1555 1553 1552 1551 1549 1548 1546 1544 1543 1541 1539 1538 1536 1534 1532 1530 1528 1526 1523 1521 1519 1516 1514 1511 1507 1504 1501 1498 1494 1490 1486 1482 1478 1474 1470 1467 1464 1460 1456 1452 1448 1445 1441 1439 1437 1435 1434 1432 1432 1431 1430 1429 1427 1425 1424 1422 1422 1423 1424 1424 1426 1427 1427 1428 1429 1430 1432 1433 1435 1438 1441
1560 1560 1560 1561 1561 1562 1562 1561 1561 1560 1560 1559 1558 1557 1556 1555 1553 1552 1550 1548 1546 1545 1543 1542 1540 1538 1537 1535 1533 1530 1528 1526 1524 1521 1519 1516 1513 1510 1507 1504 1501 1498 1494 1491 1487 1483 1479 1474 1470 1467 1463 1459 1456 1452 1448 1444 1440 1436 1433 1431 1429 1428 1427 1426 1425 1424 1422 1421 1420 1418 1418 1419 1419 1420 1422 1423 1423 1424 1425 1427 1428 1430 1432 1435 1438
1561 1561 1562 1562 1563 1563 1563 1563 1562 1562 1561 1560 1559 1558 1557 1556 1555 1553 1551 1550 1548 1546 1544 1543 1541 1539 1537 1535 1533 1531 1529 1526 1524 1521 1519 1516 1513 1509 1506 1503 1500 1497 1494 1490 1487 1483 1479 1475 1471 1467 1463 1459 1456 1452 1448 1444 1439 1435 1431 1428 1425 1423 1423 1422 1421 1419 1418 1417 1416 1415 1415 1415 1415 1416 1417 1418 1419 1421 1422 1423 1425 1426 1428 1431 1432
1562 1563 1563 1564 1564 1564 1564 1564 1563 1563 1562 1561 1561 1560 1559 1557 1556 1554 1553 1551 1549 1547 1545 1544 1542 1540 1538 1536 1534 1531 1529 1527 1524 1522 1519 1516 1512 1509 1506 1503 1500 1496 1493 1490 1486 1483 1480 1476 1472 1467 1463 1459 1455 1452 1448 1443 1439 1434 1429 1425 1422 1419 1417 1416 1415 1415 1414 1413 1412 1412 1412 1412 1412 1412 1413 1414 1415 1417 1418 1418 1419 1421 1424 1426 1428
1563 1564 1564 1565 1565 1565 1565 1565 1564 1564 1564 1563 1562 1561 1560 1558 1557 1555 1553 1552 1550 1548 1547 1545 1543 1541 1539 1537 1534 1532 1530 1527 1525 1522 1519 1516 1513 1510 1507 1503 1500 1496 1492 1489 1486 1483 1480 1476 1473 1468 1464 1460 1455 1452 1448 1443 1439 1434 1429 1424 1419 1416 1413 1411 1409 1409 1409 1408 1408 1408 1408 1408 1408 1408 1409 1410 1411 1412 1413 1413 1415 1417 1419 1421 1424
1564 1565 1565 1566 1566 1566 1566 1565 1565 1565 1565 1564 1563 1562 1561 1559 1558 1556 1555 1553 1552 1550 1549 1547 1544 1542 1540 1538 1536 1533 1531 1528 1525 1523 1520 1517 1514 1511 1508 1504 1500 1496 1492 1489 1486 1483 1480 1476 1473 1469 1464 1460 1456 1452 1448 1444 1440 1435 1430 1425 1419 1414 1411 1408 1405 1404 1403 1403 1404 1404 1404 1404 1404 1404 1404 1406 1407 1408 1408 1410 1411 1413 1415 1417 1420
1565 1566 1566 1566 1567 1567 1567 1567 1566 1566 1566 1565 1564 1563 1562 1560 1559 1558 1556 1555 1554 1552 1550 1548 1545 1543 1541 1539 1536 1534 1531 1529 1526 1523 1521 1518 1515 1513 1509 1505 1501 1498 1494 1490 1486 1483 1479 1476 1472 1468 1464 1460 1456 1452 1448 1444 1440 1436 1431 1426 1420 1415 1411 1407 1404 1402 1400 1399 1399 1400 1400 1399 1400 1400 1400 1401 1403 1404 1405 1406 1407 1409 1411 1413 1415
1566 1566 1567 1567 1567 1568 1567 1567 1567 1567 1567 1566 1565 1564 1563 1562 1560 1559 1558 1557 1555 1553 1551 1549 1547 1545 1542 1540 1537 1534 1532 1530 1527 1524 1522 1519 1517 1514 1511 1507 1504 1500 1496 1492 1488 1484 1480 1476 1472 1469 1465 1460 1456 1452 1448 1445 1441 1437 1432 1428 1423 1418 1413 1408 1404 1401 1399 1397 1396 1396 1396 1396 1396 1397 1397 1398 1399 1400 1402 1403 1404 1405 1407 1409 1410
1566 1567 1567 1568 1568 1568 1568 1568 1568 1568 1567 1567 1566 1565 1564 1563 1562 1560 1559 1558 1556 1554 1552 1550 1548 1546 1543 1540 1538 1535 1533 1530 1528 1525 1522 1520 1518 1515 1513 1510 1506 1502 1498 1493 1489 1485 1482 1478 1474 1471 1467 1462 1457 1453 1449 1445 1441 1437 1433 1428 1424 1419 1414 1409 1404 1401 1398 1396 1394 1393 1393 1393 1394 1395 1395 1395 1396 1396 1398 1399 1400 1402 1404 1405 1406
1567 1567 1568 1568 1569 1569 1569 1569 1569 1568 1568 1567 1566 1566 1565 1564 1563 1561 1560 1558 1557 1555 1553 1551 1549 1546 1543 1541 1538 1536 1533 1531 1528 1526 1523 1521 1519 1517 1514 1512 1508 1505 1500 1496 1492 1488 1484 1481 1477 1473 1469 1464 1459 1454 1450 1445 1441 1437 1433 1428 1424 1419 1415 1410 1405 1402 1399 1396 1394 1393 1392 1391 1391 1392 1392 1393 1393 1394 1394 1396 1397 1398 1400 1402 1404
1567 1568 1568 1569 1569 1569 1569 1569 1569 1569 1568 1568 1567 1566 1565 1565 1563 1562 1560 1559 1557 1556 1553 1551 1549 1546 1544 1541 1539 1536 1534 1532 1529 1527 1524 1522 1520 1518 1516 1513 1510 1507 1503 1499 1495 1491 1487 1483 1479 1475 1471 1466 1461 1456 1451 1447 1442 1438 1433 1429 1424 1420 1415 1411 1407 1403 1400 1397 1395 1394 1393 1391 1390 1391 1391 1390 1391 1391 1392 1392 1393 1395 1397 1399 1401
1567 1568 1569 1569 1569 1569 1569 1570 1569 1569 1569 1568 1568 1567 1566 1565 1564 1562 1561 1559 1558 1556 1554 1552 1549 1547 1544 1542 1539 1537 1535 1532 1530 1527 1525 1523 1521 1519 1517 1514 1512 1508 1505 1501 1498 1494 1489 1485 1481 1477 1472 1467 1462 1457 1453 1448 1444 1439 1435 1430 1425 1421 1417 1413 1409 1405 1401 1399 1396 1396 1395 1394 1392 1391 1390 1390 1390 1390 1390 1390 1391 1392 1394 1396 1398
1567 1568 1569 1569 1569 1570 1570 1570 1570 1569 1569 1569 1568 1567 1566 1565 1564 1563 1561 1560 1558 1556 1554 1552 1550 1548 1545 1543 1540 1538 1535 1533 1530 1528 1526 1523 1521 1520 1518 1516 1513 1510 1507 1503 1499 1495 1491 1486 1482 1478 1474 1469 1465 1460 1455 1450 1445 1440 1436 1431 1427 1423 1419 1416 1412 1408 1405 1402 1400 1398 1398 1398 1395 1392 1390 1390 1390 1389 1389 1389 1389 1390 1391 1393 1395
1567 1568 1569 1569 1569 1570 1570 1570 1570 1570 1569 1569 1568 1568 1567 1566 1565 1563 1562 1560 1559 1557 1554 1552 1550 1548 1546 1543 1541 1539 1536 1533 1531 1529 1526 1524 1522 1521 1518 1516 1513 1510 1507 1504 1500 1496 1492 1488 1484 1480 1476 1472 1467 1462 1457 1452 1447 1442 1438 1434 1430 1427 1423 1420 1416 1412 1409 1407 1404 1403 1402 1400 1397 1393 1391 1391 1391 1391 1390 1390 1389 1389 1390 1391 1393
1567 1568 1568 1569 1569 1570 1570 1570 1570 1570 1569 1569 1568 1568 1567 1566 1565 1564 1562 1561 1559 1557 1555 1553 1550 1548 1546 1544 1542 1539 1537 1534 1531 1529 1527 1525 1523 1521 1519 1516 1513 1510 1507 1504 1502 1498 1494 1489 1485 1481 1476 1471 1467 1463 1459 1454 1450 1446 1442 1438 1434 1430 1427 1423 1420 1416 1413 1411 1408 1406 1404 1401 1398 1396 1394 1394 1394 1394 1393 1392 1391 1391 1391 1391 1392
1567 1567 1568 1568 1569 1569 1570 1570 1570 1570 1569 1569 1568 1568 1567 1566 1565 1564 1563 1561 1559 1557 1555 1554 1551 1549 1547 1545 1542 1540 1537 1535 1533 1531 1529 1527 1525 1522 1520 1517 1515 1512 1510 1507 1504 1499 1494 1489 1485 1481 1477 1472 1469 1465 1461 1457 1454 1450 1446 1442 1438 1434 1430 1426 1422 1419 1417 1415 1412 1409 1407 1405 1402 1400 1398 1397 1397 1397 1396 1395 1394 1393 1394 1394 1393
1566 1567 1567 1568 1569 1569 1569 1570 1570 1569 1569 1569 1568 1568 1567 1566 1565 1564 1563 1561 1560 1558 1556 1554 1552 1550 1548 1546 1544 1541 1539 1537 1535 1533 1531 1529 1526 1524 1522 1520 1517 1514 1512 1509 1505 1500 1495 1491 1488 1484 1480 1476 1472 1469 1465 1461 1458 1454 1450 1447 1442 1438 1434 1430 1427 1424 1422 1419 1417 1414 1412 1409 1406 1404 1402 1401 1401 1401 1400 1398 1397 1396 1396 1396 1397
1566 1566 1567 1568 1568 1569 1569 1569 1569 1569 1569 1568 1568 1568 1567 1566 1565 1564 1563 1562 1560 1558 1557 1555 1553 1551 1550 1548 1546 1544 1542 1540 1537 1535 1532 1530 1527 1525 1523 1521 1518 1515 1513 1510 1506 1501 1497 1494 1491 1488 1484 1481 1477 1474 1470 1467 1463 1459 1455 1451 1447 1443 1439 1435 1432 1429 1426 1423 1420 1418 1416 1413 1411 1408 1407 1407 1406 1406 1404 1403 1401 1400 1399 1399 1399
1565 1565 1566 1567 1568 1568 1569 1569 1569 1569 1569 1568 1568 1567 1567 1566 1565 1564 1563 1562 1560 1559 1557 1555 1554 1552 1550 1549 1547 1545 1543 1540 1538 1536 1534 1531 1529 1526 1524 1521 1519 1516 1514 1511 1507 1503 1500 1497 1494 1491 1488 1485 1482 1478 1475 1471 1468 1464 1460 1456 1453 1449 1445 1442 1438 1434 1430 1427 1425 1422 1420 1417 1415 1414 1413 1413 1412 1411 1410 1407 1406 1405 1403 1402 1402
1564 1565 1566 1567 1567 1568 1569 1569 1569 1569 1568 1568 1568 1567 1567 1566 1565 1564 1563 1562 1561 1559 1558 1556 1555 1553 1551 1549 1547 1545 1543 1541 1539 1537 1535 1532 1530 1527 1525 1523 1520 1517 1514 1511 1508 1505 1503 1500 1497 1495 1492 1489 1486 1483 1479 1476 1473 1469 1466 1462 1459 1455 1452 1448 1444 1440 1436 1433 1430 1427 1425 1423 1421 1420 1419 1418 1417 1416 1415 1413 1411 1410 1408 1407 1407
1564 1564 1565 1566 1567 1568 1568 1568 1569 1568 1568 1568 1567 1567 1566 1566 1565 1564 1563 1562 1561 1559 1558 1557 1555 1553 1552 1550 1548 1546 1544 1542 1540 1538 1536 1533 1531 1528 1526 1524 1521 1518 1515 1512 1510 1508 1505 1503 1500 1498 1495 1492 1489 1486 1483 1480 1477 1474 1470 1467 1464 1461 1457 1453 1449 1445 1442 1439 1436 1433 1431 1429 1427 1426 1425 1424 1423 1422 1420 1418 1416 1415 1413 1412 1412
1563 1564 1565 1566 1566 1567 1567 1568 1568 1568 1568 1567 1567 1567 1566 1565 1565 1564 1563 1562 1561 1559 1558 1557 1555 1554 1552 1550 1549 1547 1545 1543 1541 1539 1537 1534 1532 1530 1527 1524 1521 1518 1515 1513 1511 1509 1507 1505 1503 1501 1498 1496 1493 1490 1487 1484 1481 1478 1474 1471 1468 1465 1461 1457 1454 1451 1448 1445 1442 1439 1437 1435 1433 1432 1431 1429 1428 1426 1425 1423 1421 1420 1419 1419 1418
1563 1563 1564 1565 1566 1566 1567 1567 1567 1567 1567 1567 1567 1566 1566 1565 1564 1563 1562 1562 1561 1559 1558 1557 1555 1554 1552 1551 1549 1548 1546 1544 1542 1540 1538 1535 1533 1530 1527 1524 1522 1519 1517 1515 1513 1511 1509 1507 1505 1503 1501 1498 1496 1493 1490 1487 1485 1482 1479 1475 1472 1469 1466 1462 1459 1456 1453 1450 1448 1446 1443 1441 1440 1438 1437 1435 1433 1431 1430 1428 1427 1426 1426 1426 1425
1562 1562 1563 1564 1565 1565 1566 1566 1566 1567 1567 1566 1566 1566 1565 1564 1564 1563 1562 1561 1560 1559 1558 1557 1555 1554 1553 1551 1550 1548 1546 1545 1543 1541 1539 1537 1534 1531 1529 1526 1524 1522 1519 1517 1515 1513 1511 1509 1507 1505 1503 1501 1498 1496 1493 1490 1488 1485 1482 1479 1476 1473 1471 1468 1465 1462 1459 1456 1453 1451 1449 1448 1446 1444 1442 1440 1438 1437 1435 1434 1433 1432 1432 1432 1432
1561 1562 1562 1563 1564 1564 1565 1565 1565 1566 1566 1566 1565 1565 1564 1564 1563 1562 1562 1561 1560 1559 1558 1556 1555 1554 1553 1551 1550 1548 1547 1545 1544 1542 1540 1537 1535 1533 1531 1528 1526 1524 1521 1519 1517 1515 1513 1511 1509 1507 1505 1503 1500 1498 1495 1492 1490 1487 1485 1482 1480 1477 1475 1472 1469 1466 1464 1461 1459 1457 1455 1453 1451 1449 1447 1445 1443 1442 1441 1440 1439 1439 1439 1438 1437
1560 1561 1562 1562 1563 1563 1564 1564 1564 1564 1564 1565 1564 1564 1564 1563 1563 1562 1561 1560 1559 1558 1557 1556 1555 1554 1553 1552 1550 1549 1547 1545 1544 1542 1540 1538 1536 1534 1532 1530 1528 1526 1523 1521 1519 1517 1515 1513 1511 1509 1507 1505 1502 1500 1497 1494 1492 1489 1487 1484 1482 1480 1477 1475 1473 1470 1468 1466 1464 1462 1460 1458 1457 1455 1453 1451 1449 1448 1447 1446 1445 1445 1444 1444 1443
1559 1560 1561 1561 1562 1563 1563 1563 1563 1563 1563 1563 1563 1563 1563 1562 1562 1561 1561 1560 1559 1558 1557 1556 1555 1554 1553 1551 1550 1548 1547 1545 1544 1542 1540 1538 1537 1535 1533 1531 1529 1527 1525 1523 1521 1519 1517 1514 1513 1511 1508 1506 1504 1502 1499 1496 1494 1491 1489 1486 1484 1482 1480 1478 1476 1474 1472 1470 1468 1467 1465 1463 1462 1460 1458 1456 1455 1454 1453 1452 1451 1450 1450 1450 1449
1558 1559 1559 1560 1561 1561 1562 1562 1562 1562 1562 1562 1562 1562 1562 1561 1561 1560 1560 1559 1558 1557 1556 1555 1554 1553 1552 1551 1550 1548 1547 1545 1544 1542 1541 1539 1537 1535 1533 1532 1530 1528 1526 1524 1522 1520 1518 1516 1514 1512 1510 1508 1506 1503 1501 1498 1495 1493 1491 1488 1486 1485 1483 1481 1479 1478 1476 1474 1472 1471 1469 1468 1466 1464 1463 1461 1460 1460 1458 1457 1457 1456 1455 1455 1455
1557 1557 1558 1559 1559 1560 1560 1561 1561 1561 1561 1561 1561 1561 1561 1560 1560 1559 1559 1558 1558 1557 1556 1555 1554 1553 1552 1551 1549 1548 1547 1545 1544 1542 1541 1539 1538 1536 1534 1532 1531 1529 1527 1525 1523 1521 1519 1517 1515 1513 1511 1509 1507 1504 1502 1499 1497 1494 1492 1490 1488 1487 1485 1483 1482 1481 1479 1477 1476 1474 1473 1472 1470 1469 1467 1466 1465 1464 1463 1462 1461 1461 1460 1460 1460
1555 1556 1557 1557 1558 1558 1559 1559 1559 1559 1559 1560 1559 1559 1559 1559 1559 1558 1558 1557 1557 1556 1555 1554 1553 1552 1551 1550 1549 1548 1546 1545 1544 1542 1541 1539 1538 1536 1535 1533 1531 1529 1528 1526 1524 1522 1520 1518 1517 1515 1513 1511 1508 1506 1503 1501 1498 1496 1494 1492 1491 1489 1487 1486 1484 1483 1481 1480 1479 1477 1476 1475 1473 1472 1471 1470 1469 1468 1467 1466 1466 1465 1464 1464 1464
1554 1554 1555 1555 1556 1557 1557 1558 1558 1558 1558 1558 1558 1558 1558 1558 1557 1557 1557 1556 1556 1555 1554 1553 1552 1551 1550 1549 1548 1547 1546 1544 1543 1542 1541 1539 1538 1536 1535 1533 1532 1530 1528 1527 1525 1523 1521 1519 1518 1516 1514 1512 1510 1508 1505 1503 1500 1498 1496 1494 1493 1491 1490 1488 1486 1485 1484 1483 1481 1480 1479 1477 1476 1475 1474 1473 1472 1471 1471 1470 1469 1469 1469 1468 1468
1552 1552 1553 1554 1554 1555 1556 1556 1556 1556 1557 1557 1557 1557 1557 1556 1556 1556 1556 1555 1554 1554 1553 1552 1552 1551 1550 1549 1548 1546 1545 1544 1543 1541 1540 1539 1538 1536 1535 1533 1532 1530 1529 1527 1525 1524 1522 1520 1518 1516 1515 1513 1511 1509 1507 1504 1502 1500 1498 1496 1495 1493 1492 1490 1489 1488 1486 1485 1484 1482 1481 1479 1478 1477 1476 1475 1475 1474 1474 1473 1473 1472 1472 1472 1472
1550 1550 1551 1552 1552 1553 1554 1554 1555 1555 1555 1555 1555 1555 1555 1555 1555 1554 1554 1554 1553 1553 1552 1551 1551 1550 1549 1548 1547 1546 1544 1543 1542 1541 1540 1539 1537 1536 1534 1533 1532 1530 1529 1527 1526 1524 1522 1521 1519 1517 1515 1514 1512 1510 1508 1506 1503 1501 1500 1498 1497 1495 1494 1493 1491 1490 1489 1487 1486 1484 1482 1481 1479 1479 1478 1477 1477 1477 1476 1476 1475 1475 1475 1475 1475
1548 1548 1549 1550 1550 1551 1552 1552 1553 1553 1553 1553 1553 1554 1554 1553 1553 1553 1552 1552 1552 1551 1551 1550 1549 1549 1548 1547 1546 1545 1544 1543 1541 1540 1539 1538 1537 1535 1534 1533 1531 1530 1529 1527 1526 1524 1523 1521 1519 1518 1516 1514 1512 1511 1509 1507 1505 1503 1501 1500 1498 1497 1496 1495 1493 1492 1491 1489 1488 1486 1484 1483 1481 1480 1480 1479 1479 1479 1479 1478 1478 1477 1477 1477 1477
1546 1546 1547 1548 1548 1549 1550 1550 1550 1551 1551 1551 1551 1552 1552 1552 1551 1551 1551 1550 1550 1550 1549 1549 1548 1547 1547 1546 1545 1544 1543 1542 1541 1540 1539 1537 1536 1535 1534 1532 1531 1530 1528 1527 1526 1524 1523 1521 1520 1518 1517 1515 1513 1511 1510 1508 1506 1504 1503 1501 1500 1498 1497 1496 1495 1494 1492 1491 1490 1488 1486 1485 1484 1482 1482 1481 1481 1481 1480 1480 1480 1480 1480 1479 1479
1544 1544 1545 1545 1546 1546 1547 1548 1548 1548 1549 1549 1549 1549 1549 1549 1549 1549 1549 1549 1548 1548 1547 1547 1546 1546 1545 1544 1544 1543 1542 1541 1540 1539 1538 1537 1535 1534 1533 1532 1531 1529 1528 1527 1525 1524 1523 1521 1520 1519 1517 1515 1514 1512 1510 1509 1507 1505 1504 1502 1501 1500 1498 1497 1496 1495 1494 1493 1491 1490 1488 1487 1486 1485 1484 1483 1483 1483 1482 1482 1482 1482 1481 1481 1481
1541 1542 1542 1543 1543 1544 1545 1545 1546 1546 1546 1546 1547 1547 1547 1547 1547 1547 1547 1546 1546 1546 1545 1545 1544 1544 1543 1543 1542 1541 1540 1540 1539 1538 1537 1536 1534 1533 1532 1531 1530 1529 1528 1526 1525 1524 1523 1521 1520 1519 1517 1516 1515 1513 1511 1510 1508 1506 1505 1503 1502 1501 1499 1498 1497 1496 1495 1494 1493 1491 1490 1489 1488 1487 1486 1485 1485 1484 1484 1484 1484 1483 1483 1483 1482
1539 1539 1540 1540 1541 1541 1542 1542 1543 1543 1544 1544 1544 1544 1544 1544 1544 1544 1544 1544 1544 1543 1543 1542 1542 1542 1541 1540 1540 1539 1539 1538 1537 1536 1535 1534 1533 1532 1531 1530 1529 1528 1527 1526 1525 1523 1522 1521 1520 1518 1517 1516 1515 1514 1512 1511 1509 1507 1506 1504 1503 1501 1500 1499 1498 1497 1496 1495 1494 1493 1492 1491 1490 1489 1488 1487 1486 1486 1486 1485 1485 1485 1484 1484 1483